Погода в Кажирове

Россия / Костромская область     58°46′52″N   46°25′42″E
темп.,
°C
ветер,
м/с
пор.,
м/с
влажн.,
%
обл.,
%
осадки,
мм/ч
давл.,
гПа
погр.,
м
6 марта, сб
сб600:00−18з23970 0.0 100827
03:00−19з239825 0.0 101160
06:00−20зсз239875 0.0 101183
09:00−17зсз249459 0.0 1012210
12:00−12з248981 0.0 1012581
15:00−11з358691 0.1 1011863
18:00−14з2294100 0.1 101122
21:00−18зюз129779 0.1 101120
7 марта, вс
вс700:00−19юз22990 0.0 101020
03:00−20ююз2210033 0.0 100920
06:00−20ю2310058 0.0 100773
09:00−15ю369571 0.0 1005248
12:00−10ююв498899 0.0 1003558
15:00−9юв51089100 0.1 1000679
18:00−9юв51194100 0.4 997846
21:00−9юв51193100 1.1 995732
8 марта, пн
пн800:00−9вюв51093100 0.6 992625
03:00−10в51094100 1.1 991524
06:00−10всв4994100 0.8 990481
09:00−9всв4893100 1.3 991512
12:00−8всв4692100 0.3 993598
15:00−8св4692100 0.7 994530
18:00−10ссв3994100 0.3 996448
21:00−12ссв41093100 0.4 997437
9 марта, вт
вт900:00−13с41092100 0.1 999453
03:00−15с41093100 0.1 1001486
06:00−17ссз4109399 0.1 1004429
09:00−17ссз489299 0.1 1006450
12:00−14ссз3690100 0.1 1008527
15:00−14ссз3690100 0.1 1010611
18:00−17ссз3794100 0.1 1012409
21:00−21с399696 0.1 1014257
10 марта, ср
ср1000:00−25с279787 0.0 1016132
03:00−27с259882 0.0 101791
06:00−29с259843 0.0 101989
09:00−26с259530 0.0 1020268
12:00−20с258954 0.0 1020445
15:00−17ссз258327 0.0 1020591
18:00−21сз23950 0.0 102025
21:00−23зсз239613 0.0 102141